TimePDT,TemperatureF,Dew PointF,Humidity,Sea Level PressureIn,VisibilityMPH,Wind Direction,Wind SpeedMPH,Gust SpeedMPH,PrecipitationIn,Events,Conditions,WindDirDegrees,DateUTC
12:00 AM,46.4,43.3,89,29.74,-9999.0,SE,3.5,-,N/A,,Unknown,130,2012-10-20 07:00:00
1:00 AM,45.9,43.0,90,29.75,-9999.0,SSE,3.5,-,N/A,,Unknown,160,2012-10-20 08:00:00
2:00 AM,46.8,42.4,85,29.76,-9999.0,South,4.6,-,N/A,,Unknown,180,2012-10-20 09:00:00
3:00 AM,45.9,39.6,79,29.78,-9999.0,South,2.3,-,N/A,,Unknown,190,2012-10-20 10:00:00
4:00 AM,45.7,37.4,73,29.78,-9999.0,SSW,2.3,-,N/A,,Unknown,210,2012-10-20 11:00:00
5:00 AM,45,37,66,29.79,,SSW,2.3,,,,,210,2012-10-20 12:00:00
5:00 AM,45.1,37.2,74,29.79,-9999.0,SSW,2.3,-,N/A,,Unknown,210,2012-10-20 12:00:00
6:00 AM,44.8,37.6,76,29.81,-9999.0,South,2.3,-,N/A,,Unknown,180,2012-10-20 13:00:00
7:00 AM,44.6,37.2,75,29.81,-9999.0,SE,2.3,-,N/A,,Unknown,140,2012-10-20 14:00:00
8:00 AM,45.0,36.5,72,29.81,-9999.0,South,2.3,-,N/A,,Unknown,190,2012-10-20 15:00:00
9:00 AM,45.5,36.5,71,29.83,-9999.0,South,3.5,-,N/A,,Unknown,170,2012-10-20 16:00:00
10:00 AM,47.1,35.6,64,29.83,-9999.0,SW,4.6,-,N/A,,Unknown,230,2012-10-20 17:00:00
11:00 AM,48,35,51,29.84,,WSW,6.9,,,,,240,2012-10-20 18:00:00
11:00 AM,48.0,35.4,62,29.84,-9999.0,WSW,6.9,-,N/A,,Unknown,240,2012-10-20 18:00:00
12:00 PM,47.5,35.8,64,29.85,-9999.0,SSW,6.9,-,N/A,,Unknown,200,2012-10-20 19:00:00
1:00 PM,48.4,36.5,64,29.85,-9999.0,SSW,8.1,-,N/A,,Unknown,200,2012-10-20 20:00:00
2:00 PM,48.7,36.5,63,29.86,-9999.0,South,6.9,-,N/A,,Unknown,190,2012-10-20 21:00:00
3:00 PM,48.0,36.0,63,29.85,-9999.0,South,6.9,-,N/A,,Unknown,190,2012-10-20 22:00:00
4:00 PM,47.8,37.2,67,29.86,-9999.0,SSW,3.5,-,N/A,,Unknown,210,2012-10-20 23:00:00
5:00 PM,46,37,61,29.85,,SSW,9.2,,,,,200,2012-10-21 00:00:00
5:00 PM,46.0,36.9,70,29.85,-9999.0,SSW,9.2,-,N/A,,Unknown,200,2012-10-21 00:00:00
6:00 PM,44.1,35.4,72,29.85,-9999.0,WSW,2.3,-,N/A,,Unknown,250,2012-10-21 01:00:00
7:00 PM,43.9,36.9,76,29.85,-9999.0,SE,2.3,-,N/A,,Unknown,130,2012-10-21 02:00:00
9:00 PM,42.1,37.6,84,29.86,-9999.0,ESE,5.8,-,N/A,,Unknown,110,2012-10-21 04:00:00
10:00 PM,40.8,38.7,92,29.87,-9999.0,East,5.8,-,0.01,,Unknown,90,2012-10-21 05:00:00
11:00 PM,41,39,88,29.87,,East,3.5,,,,,90,2012-10-21 06:00:00
11:00 PM,41.0,38.7,91,29.87,-9999.0,East,3.5,-,N/A,,Unknown,90,2012-10-21 06:00:00